This is the latest recevied weather packets stored in our database for station/object WX5HOT. If no packets are shown the sender has not sent any weather packets the latest 10 day(s).
| Time | Temp. | Humidity | Pressure | Rain* | Wind** | Luminosity | Snow |
|---|---|---|---|---|---|---|---|
| 1778108039 | 8.33° C | 99% | 1064.7 hPa | 0 mm | - | 84 W/m² | - |
| 1778107736 | 8.33° C | 99% | 1064.5 hPa | 0 mm | - | 105 W/m² | - |
| 1778107433 | 8.33° C | 99% | 1064.1 hPa | 0 mm | - | 98 W/m² | - |
| 1778107129 | 8.89° C | 99% | 1064.5 hPa | 0 mm | - | 98 W/m² | - |
| 1778106825 | 8.33° C | 99% | 1064.2 hPa | 0 mm | - | 104 W/m² | - |
| 1778106522 | 8.33° C | 99% | 1064.1 hPa | 0 mm | - | 81 W/m² | - |
| 1778106217 | 8.33° C | 99% | 1064.2 hPa | 0 mm | - | 61 W/m² | - |
| 1778105916 | 8.33° C | 99% | 1064.2 hPa | 0 mm | - | 68 W/m² | - |
| 1778105613 | 8.33° C | 99% | 1064 hPa | 0 mm | - | 72 W/m² | - |
| 1778105311 | 8.33° C | 99% | 1063.9 hPa | 0 mm | - | 97 W/m² | - |
| 1778105006 | 8.33° C | 99% | 1064 hPa | 0 mm | - | 139 W/m² | - |
| 1778104703 | 8.33° C | 99% | 1063.7 hPa | 0 mm | - | 158 W/m² | - |
| 1778104399 | 8.33° C | 99% | 1063.9 hPa | 0 mm | - | 109 W/m² | - |
| 1778104095 | 8.33° C | 99% | 1063.5 hPa | 0 mm | - | 79 W/m² | - |
| 1778103791 | 8.33° C | 99% | 1063.4 hPa | 0 mm | - | 82 W/m² | - |
| 1778103490 | 8.33° C | 99% | 1063.4 hPa | 0 mm | - | 101 W/m² | - |
| 1778103186 | 8.33° C | 99% | 1063.5 hPa | 0 mm | - | 113 W/m² | - |
| 1778102884 | 8.33° C | 99% | 1063.7 hPa | 0 mm | - | 100 W/m² | - |
| 1778102580 | 7.78° C | 99% | 1064 hPa | 0 mm | - | 90 W/m² | - |
| 1778102274 | 8.33° C | 99% | 1063.9 hPa | 0 mm | - | 124 W/m² | - |
| 1778101971 | 8.33° C | 99% | 1064 hPa | 0 mm | - | 127 W/m² | - |
| 1778101668 | 7.78° C | 99% | 1064.4 hPa | 0 mm | - | 41 W/m² | - |
| 1778101365 | 7.78° C | 99% | 1064.3 hPa | 0 mm | - | 67 W/m² | - |
| 1778101062 | 7.78° C | 99% | 1064.3 hPa | 0 mm | - | 112 W/m² | - |
| 1778100758 | 8.33° C | 99% | 1064 hPa | 0 mm | - | 148 W/m² | - |
* Rain latest hour (hover to see other rain measurements)
** Current wind speed in m/s (hover to see current wind gust speed)